EA2MKR Weather Reports


Display with metric or nautical units.
time (UTC)temp
F
wind
direction
speed
MPH
gust
MPH
rain 1hr
in
rain 24hr
in
rain mn
in
humidity
%
barometer
mb
20260504151039 55 94 4.0 7.0 0.00 0.40 0.38 81 949.6
20260504151003 55 114 4.0 7.0 0.00 0.40 0.38 81 949.6
20260504150537 55 94 3.0 13.0 0.00 0.40 0.38 79 949.6
20260504150502 55 164 3.0 13.0 0.00 0.40 0.38 79 949.7
20260504141031 53 106 3.0 12.0 0.05 0.40 0.38 84 949.7
20260504141002 53 96 5.0 12.0 0.05 0.40 0.38 85 949.7
20260504140532 53 94 4.0 11.0 0.06 0.40 0.38 86 949.6
20260504140503 53 76 5.0 11.0 0.06 0.40 0.38 86 949.6
20260504140211 52 87 2.0 5.0 0.09 0.40 0.38 88 949.5
20260504130532 50 94 1.0 9.0 0.27 0.36 0.31 91 950.3
20260504130503 50 93 1.0 9.0 0.27 0.36 0.31 92 950.3
20260504130211 50 127 5.0 9.0 0.24 0.36 0.29 92 950.4
20260504120211 52 128 11.0 17.0 0.01 0.13 0.05 86 948.8
20260504110531 54 151 6.0 17.0 0.00 0.13 0.04 86 949.4
20260504110502 54 111 8.0 17.0 0.00 0.13 0.04 85 949.4
20260504100532 58 128 4.0 6.0 0.00 0.13 0.04 85 949.4
20260504100503 58 123 4.0 5.0 0.00 0.13 0.04 85 949.4
20260504081711 56 125 1.0 3.0 0.00 0.13 0.04 90 949.4
20260504081210 56 120 0.0 4.0 0.00 0.13 0.04 91 949.4
20260504080501 55 100 3.0 4.0 0.00 0.13 0.04 91 949.3
20260504050426 53 120 0.0 1.0 0.00 0.13 0.04 95 948.8
20260504045925 53 117 0.0 2.0 0.00 0.13 0.04 95 948.8
20260504045425 53 117 0.0 4.0 0.00 0.13 0.04 95 948.8
20260504044925 52 106 2.0 4.0 0.00 0.13 0.04 95 948.9
20260504044425 53 245 1.0 2.0 0.00 0.13 0.04 95 948.9
20260504043924 53 245 0.0 2.0 0.00 0.13 0.04 96 948.8
20260504043424 53 245 0.0 2.0 0.00 0.13 0.04 96 948.9
20260504042924 53 247 1.0 2.0 0.00 0.13 0.04 96 948.8
20260504042424 53 152 0.0 0.0 0.00 0.13 0.04 96 948.9
20260504041924 53 130 0.0 2.0 0.00 0.13 0.04 96 948.9
20260504041424 53 130 0.0 2.0 0.00 0.13 0.04 96 948.8
20260504040924 53 93 1.0 1.0 0.00 0.13 0.04 96 948.9
20260504040632 53 161 0.0 1.0 0.00 0.13 0.04 96 948.9
20260504035923 53 161 0.0 0.0 0.00 0.13 0.04 96 948.9
20260504035424 53 161 0.0 1.0 0.00 0.13 0.04 96 949.0
20260504034923 53 161 0.0 1.0 0.00 0.13 0.04 95 948.9
20260504034423 53 161 0.0 1.0 0.00 0.13 0.04 96 949.0
20260504033924 53 13 0.0 0.0 0.00 0.13 0.04 95 949.0
20260504033423 53 13 0.0 0.0 0.00 0.13 0.04 96 949.0
20260504032923 53 13 0.0 0.0 0.00 0.13 0.04 95 949.0
20260504032423 53 13 0.0 0.0 0.00 0.13 0.04 95 949.1
20260504031923 53 13 0.0 3.0 0.00 0.13 0.04 95 949.2
20260504031631 53 13 1.0 3.0 0.00 0.13 0.04 95 949.2
20260504031130 53 148 0.0 0.0 0.00 0.13 0.04 95 949.1
20260504030423 53 148 0.0 0.0 0.00 0.13 0.04 95 949.2
20260504030131 53 148 0.0 0.0 0.00 0.13 0.04 96 949.2
20260504025423 53 148 0.0 0.0 0.00 0.13 0.04 95 949.2
20260504025130 53 148 0.0 0.0 0.00 0.13 0.04 95 949.2
20260504024630 53 148 0.0 0.0 0.00 0.13 0.04 95 949.2
20260504023922 53 148 0.0 0.0 0.00 0.13 0.04 95 949.3
20260504023422 53 148 0.0 0.0 0.00 0.13 0.04 95 949.3
20260504022925 53 148 0.0 0.0 0.00 0.13 0.04 95 949.3
20260504022921 53 148 0.0 0.0 0.00 0.13 0.04 95 949.2
20260504022421 53 148 0.0 2.0 0.00 0.13 0.04 95 949.3
20260504022130 53 148 0.0 2.0 0.00 0.13 0.04 94 949.2
20260504021421 54 148 0.0 0.0 0.00 0.13 0.04 95 949.2
20260504020922 54 148 0.0 0.0 0.01 0.13 0.04 95 949.3
20260504020421 54 148 0.0 0.0 0.01 0.13 0.04 95 949.2
20260504015921 54 148 0.0 0.0 0.01 0.13 0.04 94 949.2
20260504015421 54 148 0.0 3.0 0.02 0.13 0.04 94 949.2
20260504014921 53 148 0.0 6.0 0.02 0.13 0.04 94 949.1
20260504014421 53 155 2.0 6.0 0.02 0.13 0.04 93 949.2
20260504013921 54 120 1.0 5.0 0.02 0.13 0.04 94 949.3
20260504013629 54 154 1.0 6.0 0.02 0.13 0.04 94 949.2
20260504012920 54 120 5.0 6.0 0.02 0.13 0.04 93 949.2
20260504012420 55 121 2.0 3.0 0.02 0.13 0.04 93 949.2
20260504011921 55 226 0.0 2.0 0.02 0.13 0.04 93 949.2
20260504011420 55 235 0.0 2.0 0.02 0.13 0.04 93 949.2
20260504010920 55 240 1.0 2.0 0.02 0.13 0.03 93 949.2
20260504010420 55 213 0.0 2.0 0.02 0.13 0.03 93 949.1
20260504005920 55 226 0.0 2.0 0.02 0.11 0.03 93 949.0
20260504005419 55 128 0.0 3.0 0.00 0.11 0.02 93 949.2
20260504005128 55 125 0.0 3.0 0.00 0.11 0.02 93 949.2
20260504004419 55 103 0.0 1.0 0.00 0.11 0.02 93 949.3
20260504003919 55 103 0.0 1.0 0.00 0.11 0.02 93 949.2
20260504003420 55 171 0.0 2.0 0.00 0.11 0.02 93 949.3
20260504002920 55 142 0.0 4.0 0.00 0.11 0.02 93 949.4
20260504002419 55 149 2.0 4.0 0.00 0.11 0.02 93 949.4
20260504001919 55 158 2.0 2.0 0.00 0.11 0.02 93 949.4
20260504001628 55 314 1.0 2.0 0.00 0.11 0.02 93 949.5
20260504001128 55 314 0.0 2.0 0.01 0.11 0.02 93 949.4
20260504000419 55 147 0.0 1.0 0.02 0.11 0.02 94 949.4
20260503235919 54 140 0.0 3.0 0.02 0.09 0.02 94 949.3
20260503235419 54 140 1.0 4.0 0.02 0.09 0.02 94 949.5
20260503234918 55 131 3.0 4.0 0.02 0.09 0.02 93 949.5
20260503234419 55 133 2.0 3.0 0.02 0.09 0.02 93 949.4
20260503233918 55 235 0.0 2.0 0.02 0.09 0.02 93 949.4
20260503233419 55 235 0.0 1.0 0.02 0.09 0.02 93 949.3
20260503233126 55 234 0.0 0.0 0.02 0.09 0.02 93 949.3
20260503232626 55 234 0.0 2.0 0.02 0.09 0.02 92 949.4
20260503231917 55 235 0.0 2.0 0.02 0.09 0.02 92 949.4
20260503231626 55 237 0.0 2.0 0.02 0.09 0.02 92 949.4
20260503230917 55 237 1.0 3.0 0.01 0.09 0.01 92 949.5
20260503230625 55 310 1.0 3.0 0.00 0.09 0.00 92 949.5
20260503230125 55 316 0.0 4.0 0.00 0.09 0.00 91 949.4
20260503225418 56 323 2.0 4.0 0.00 0.09 0.00 90 949.4
20260503224917 56 223 1.0 4.0 0.00 0.10 0.00 90 949.4
20260503224417 56 282 1.0 5.0 0.00 0.11 0.00 90 949.5
20260503223917 56 300 2.0 5.0 0.00 0.11 0.00 91 949.5
20260503223417 55 285 1.0 4.0 0.00 0.12 0.00 92 949.5
20260503222917 55 290 0.0 2.0 0.00 0.12 0.00 93 949.4
20260503222417 55 292 0.0 2.0 0.00 0.13 0.00 93 949.6
20260503221916 55 292 0.0 2.0 0.00 0.14 0.00 93 949.6
20260503221416 55 288 0.0 2.0 0.00 0.15 0.00 94 949.5
20260503221125 55 317 0.0 0.0 0.00 0.16 0.00 94 949.5
20260503220417 55 317 0.0 2.0 0.00 0.17 0.00 94 949.6
20260503215916 55 317 0.0 2.0 0.00 0.17 0.17 94 949.6
20260503215416 55 319 0.0 2.0 0.00 0.18 0.17 94 949.6
20260503214916 55 274 0.0 1.0 0.00 0.19 0.17 94 949.5
20260503214624 55 274 0.0 0.0 0.00 0.20 0.17 94 949.6
20260503213916 55 274 0.0 1.0 0.00 0.20 0.17 94 949.5
20260503213415 55 274 0.0 1.0 0.00 0.20 0.17 94 949.5
20260503213124 55 274 0.0 2.0 0.00 0.21 0.17 93 949.6
20260503212415 55 274 0.0 2.0 0.00 0.22 0.17 93 949.7
20260503211915 56 244 0.0 2.0 0.00 0.22 0.17 94 949.6
20260503211415 56 228 1.0 2.0 0.00 0.23 0.17 94 949.6
20260503210915 56 275 0.0 2.0 0.00 0.24 0.17 94 949.6
20260503210415 56 269 0.0 1.0 0.00 0.24 0.17 94 949.7
20260503205916 56 255 0.0 1.0 0.00 0.24 0.17 94 949.8
20260503205415 56 255 0.0 1.0 0.00 0.24 0.17 94 949.8
20260503205124 56 255 0.0 0.0 0.00 0.24 0.17 94 949.8
20260503204623 56 255 0.0 0.0 0.00 0.24 0.17 94 949.9
20260503203914 56 255 0.0 2.0 0.00 0.24 0.17 93 949.8
20260503203414 56 255 0.0 4.0 0.00 0.24 0.17 93 949.8
20260503202914 56 255 1.0 4.0 0.00 0.24 0.17 94 949.7
20260503202414 56 244 1.0 2.0 0.00 0.24 0.17 94 949.7
20260503201914 56 234 0.0 2.0 0.00 0.24 0.17 95 949.7
20260503201622 56 235 0.0 2.0 0.00 0.24 0.17 95 949.7
20260503201122 56 220 0.0 1.0 0.00 0.24 0.17 95 949.6
20260503200414 56 152 0.0 0.0 0.00 0.24 0.17 95 949.5
20260503195913 56 152 0.0 0.0 0.00 0.24 0.17 94 949.6
20260503195622 56 152 0.0 1.0 0.00 0.24 0.17 94 949.5
20260503194913 56 152 0.0 1.0 0.00 0.24 0.17 94 949.4
20260503194621 56 152 0.0 2.0 0.00 0.24 0.17 94 949.3
20260503194122 56 152 1.0 2.0 0.00 0.24 0.17 94 949.3
20260503193414 56 149 1.0 2.0 0.00 0.24 0.17 94 949.2
20260503193121 56 137 0.0 0.0 0.00 0.24 0.17 94 949.1
20260503192413 56 135 0.0 0.0 0.00 0.24 0.17 94 949.1
20260503192121 56 137 0.0 1.0 0.00 0.24 0.17 94 949.0
20260503191413 56 135 0.0 1.0 0.01 0.24 0.17 94 949.1
20260503191121 56 135 0.0 1.0 0.01 0.24 0.17 94 948.9
20260503190412 56 343 0.0 1.0 0.01 0.24 0.17 93 948.9
20260503185913 56 343 0.0 1.0 0.01 0.23 0.17 93 948.8
20260503185413 56 343 0.0 1.0 0.01 0.23 0.17 93 948.8
20260503184912 57 341 0.0 0.0 0.02 0.23 0.17 92 948.8
20260503184411 57 341 0.0 0.0 0.02 0.24 0.17 92 948.7
20260503183912 57 341 0.0 0.0 0.02 0.24 0.17 92 948.7
20260503183412 57 343 0.0 0.0 0.02 0.24 0.17 92 948.8
20260503182911 57 341 0.0 0.0 0.02 0.24 0.17 91 948.8
20260503182412 57 343 0.0 1.0 0.02 0.24 0.17 91 948.8
20260503181912 57 341 0.0 2.0 0.02 0.25 0.17 90 948.7
20260503181411 58 343 0.0 4.0 0.02 0.27 0.17 89 948.7
20260503180911 58 337 0.0 4.0 0.02 0.28 0.17 88 948.8
20260503180411 58 79 1.0 5.0 0.02 0.30 0.17 87 948.7
20260503175911 58 80 0.0 5.0 0.02 0.30 0.17 87 948.7
20260503175409 58 58 2.0 5.0 0.02 0.33 0.17 87 948.8
20260503175112 58 28 3.0 10.0 0.01 0.36 0.16 86 948.8
20260503174403 59 7 5.0 12.0 0.00 0.37 0.15 85 948.8
20260503173906 59 133 5.0 12.0 0.00 0.39 0.15 84 948.8
20260503173902 59 158 5.0 12.0 0.00 0.39 0.15 84 948.8
20260503173611 58 62 4.0 6.0 0.00 0.42 0.15 86 948.8
20260503172906 59 110 1.0 3.0 0.00 0.44 0.15 88 948.8
20260503172902 59 110 1.0 3.0 0.00 0.44 0.15 87 948.8
20260503172402 59 75 1.0 2.0 0.00 0.49 0.15 87 948.7
20260503171903 59 312 0.0 2.0 0.00 0.59 0.15 86 948.6
20260503171404 59 324 0.0 3.0 0.00 0.64 0.15 86 948.5
20260503171400 59 324 0.0 3.0 0.00 0.65 0.15 86 948.5
20260503170902 59 326 1.0 3.0 0.00 0.65 0.15 85 948.5
20260503170853 59 326 1.0 3.0 0.00 0.65 0.15 85 948.5
20260503170403 59 282 1.0 3.0 0.00 0.65 0.15 85 948.5
20260503170345 59 295 1.0 2.0 0.00 0.65 0.15 85 948.5